Binghamton, NY

5:28 PM EST on December 10, 2019 (GMT -0500)
Binghamton Regional-Link

Weather History for KBGM - May, 2019

Change the Weather History Date:

Friday, May 17, 2019

  Actual Average Record
Temperature  
Mean Temperature 59 °F 56 °F  
Max Temperature 69 °F 66 °F 86 °F (1962)
Min Temperature 48 °F 46 °F 25 °F (1956)
Degree Days  
Heating Degree Days 6 9  
Month to date heating degree days 211 200  
Since 1 July heating degree days 7001 6999  
Cooling Degree Days 0 1  
Month to date cooling degree days 0 5  
Year to date cooling degree days 0 9  
Growing Degree Days 10 (Base 50)    
Moisture  
Dew Point 48 °F    
Average Humidity 66    
Maximum Humidity 84    
Minimum Humidity 47    
Precipitation  
Precipitation 0.13 in 0.11 in 0.89 in (1970)
Month to date precipitation 3.79 1.85  
Year to date precipitation 15.27 13.03  
Snow  
Snow 0.00 in 0.00 in 1.00 in (1973)
Month to date snowfall 0.0 0.1  
Since 1 July snowfall 81.4 83.4  
Snow Depth 0.00 in    
Sea Level Pressure  
Sea Level Pressure 29.77 in    
Wind  
Wind Speed 10 mph (WSW)    
Max Wind Speed 17 mph    
Max Gust Speed 26 mph    
Visibility 10 miles    
Events Rain    
T = Trace of Precipitation, MM = Missing Value Source: NWS Daily Summary

Daily Weather History Graph

Daily Weather History Graph

Search for Another Location

Airport or City:

Astronomy

May. 17, 2019 Rise Set
Actual Time 5:41 AM EDT 8:20 PM EDT
Civil Twilight 5:08 AM EDT 8:52 PM EDT
Nautical Twilight 4:28 AM EDT 9:33 PM EDT
Astronomical Twilight 3:42 AM EDT 10:19 PM EDT
Moon 7:03 PM EDT (5/17) 5:14 AM EDT (5/17)
Length of Visible Light 15h 43m
Length of Day
14h 38m
Waxing Gibbous, 98% of the Moon is Illuminated
May 17
Waxing Gibbous
May 18
Full
May 26
Last Quarter
Jun 3
New
Jun 10
First Quarter

Hourly Weather History & Observations

Time (EDT) Temp. Dew Point Humidity Pressure Visibility Wind Dir Wind Speed Gust Speed Precip Events Conditions
12:53 AM 55.0 °F 43.0 °F 64% 29.81 in 10.0 mi SSE 8.1 mph - N/A   Overcast
1:53 AM 55.9 °F 42.1 °F 60% 29.77 in 10.0 mi South 6.9 mph - N/A   Overcast
2:53 AM 57.0 °F 39.0 °F 51% 29.75 in 10.0 mi SW 6.9 mph - N/A   Overcast
3:53 AM 59.0 °F 39.0 °F 48% 29.73 in 10.0 mi SSW 10.4 mph - N/A   Overcast
4:53 AM 59.0 °F 41.0 °F 51% 29.72 in 10.0 mi SW 11.5 mph - N/A   Overcast
5:53 AM 59.0 °F 43.0 °F 55% 29.73 in 10.0 mi SW 13.8 mph 20.7 mph N/A   Overcast
6:53 AM 57.9 °F 44.1 °F 60% 29.74 in 10.0 mi SW 11.5 mph - N/A   Overcast
7:53 AM 59.0 °F 45.0 °F 60% 29.74 in 10.0 mi SW 9.2 mph - N/A   Overcast
8:39 AM 57.9 °F 48.0 °F 70% 29.75 in 2.0 mi SW 9.2 mph - 0.00 in Rain Light Rain
8:53 AM 55.9 °F 48.9 °F 77% 29.75 in 2.0 mi SW 11.5 mph - 0.03 in Rain Light Rain
9:53 AM 55.9 °F 52.0 °F 87% 29.74 in 10.0 mi SSW 6.9 mph - 0.10 in   Overcast
10:53 AM 57.0 °F 52.0 °F 83% 29.75 in 10.0 mi SW 8.1 mph - 0.00 in   Overcast
11:53 AM 61.0 °F 54.0 °F 78% 29.74 in 10.0 mi SW 10.4 mph - N/A   Overcast
12:53 PM 60.1 °F 55.0 °F 83% 29.74 in 10.0 mi SW 11.5 mph - N/A   Overcast
1:49 PM 62.6 °F 55.4 °F 77% 29.74 in 10.0 mi SSW 8.1 mph - N/A   Overcast
1:53 PM 63.0 °F 55.9 °F 78% 29.73 in 10.0 mi SW 10.4 mph - N/A   Overcast
2:16 PM 66.0 °F 57.0 °F 73% 29.73 in 10.0 mi WSW 9.2 mph - N/A   Scattered Clouds
2:30 PM 66.0 °F 57.0 °F 73% 29.73 in 10.0 mi SW 11.5 mph - N/A   Mostly Cloudy
2:53 PM 64.9 °F 55.9 °F 73% 29.72 in 10.0 mi SW 9.2 mph - 0.00 in Rain Light Rain
3:53 PM 68.0 °F 55.9 °F 65% 29.72 in 10.0 mi NW 9.2 mph - 0.00 in   Mostly Cloudy
4:53 PM 66.9 °F 55.0 °F 66% 29.74 in 10.0 mi NW 13.8 mph 20.7 mph N/A   Partly Cloudy
5:53 PM 64.0 °F 52.0 °F 65% 29.77 in 10.0 mi NNW 13.8 mph - N/A   Scattered Clouds
6:53 PM 62.1 °F 48.9 °F 62% 29.80 in 10.0 mi NW 15.0 mph 21.9 mph N/A   Scattered Clouds
7:53 PM 57.9 °F 48.0 °F 70% 29.83 in 10.0 mi NNW 10.4 mph - N/A   Clear
8:53 PM 55.9 °F 43.0 °F 62% 29.87 in 10.0 mi NNW 9.2 mph - N/A   Clear
9:53 PM 53.1 °F 42.1 °F 66% 29.89 in 10.0 mi NNW 8.1 mph - N/A   Clear
10:53 PM 50.0 °F 41.0 °F 71% 29.90 in 10.0 mi North 6.9 mph - N/A   Clear
11:53 PM 48.9 °F 39.0 °F 69% 29.90 in 10.0 mi NNW 6.9 mph - N/A   Clear